Valdez, AK

11:03 PM AKST on February 08, 2016 (GMT -0900)
Valdez

Weather History for PAVD - December, 2012

Change the Weather History Date:

Monday, December 31, 2012

  Actual Average Record
Temperature  
Mean Temperature 34 °F -  
Max Temperature 35 °F 30 °F 48 °F (1980)
Min Temperature 32 °F 20 °F -4 °F (1964)
Degree Days  
Heating Degree Days 32    
Moisture  
Dew Point 32 °F    
Average Humidity 93    
Maximum Humidity 100    
Minimum Humidity 87    
Precipitation  
Precipitation 0.19 in - - ()
Sea Level Pressure  
Sea Level Pressure 29.86 in    
Wind  
Wind Speed 2 mph (East)    
Max Wind Speed 7 mph    
Max Gust Speed -    
Visibility 5 miles    
Events      
Averages and records for this station are not official NWS values.
T = Trace of Precipitation, MM = Missing Value Source: NWS Daily Summary

Daily Weather History Graph

Daily Weather History Graph

Search for Another Location

Airport or City:

Trip Planner

Search our weather history database for the weather conditions in past years. The results will help you decide how hot, cold, wet, or windy it might be!

Date:

Astronomy

Dec. 31, 2012 Rise Set
Actual Time 9:58 AM AKST 3:38 PM AKST
Civil Twilight 8:57 AM AKST 4:39 PM AKST
Nautical Twilight 7:58 AM AKST 5:38 PM AKST
Astronomical Twilight 7:05 AM AKST 6:31 PM AKST
Moon 8:33 PM AKST (12/31) 10:36 AM AKST (12/31)
Length of Visible Light 7h 41m
Length of Day
5h 39m
Waning Gibbous, 89% of the Moon is Illuminated
Dec 31
Waning Gibbous
Jan 4
Last Quarter
Jan 11
New
Jan 18
First Quarter
Jan 26
Full

Hourly Weather History & Observations

Time (AKST) Temp. Windchill Dew Point Humidity Pressure Visibility Wind Dir Wind Speed Gust Speed Precip Events Conditions
12:16 AM 33.8 °F 30.8 °F 33.8 °F 100% 29.67 in 3.0 mi East 3.5 mph - 0.01 in   Overcast
12:36 AM 33.8 °F - 33.8 °F 100% 29.68 in 9.0 mi Calm Calm - 0.02 in   Mostly Cloudy
12:56 AM 33.8 °F 28.6 °F 33.8 °F 100% 29.68 in 4.0 mi East 5.8 mph - 0.03 in   Overcast
1:16 AM 33.8 °F 27.7 °F 33.8 °F 100% 29.68 in 5.0 mi SE 6.9 mph - N/A   Overcast
1:36 AM 33.8 °F 27.7 °F 32.0 °F 93% 29.69 in 10.0 mi NNE 6.9 mph - N/A   Overcast
1:56 AM 33.8 °F - 32.0 °F 93% 29.69 in 10.0 mi Calm Calm - N/A   Overcast
2:36 AM 35.6 °F - 33.8 °F 93% 29.70 in 10.0 mi Calm Calm - 0.02 in   Overcast
3:16 AM 35.6 °F - 32.0 °F 87% 29.71 in 9.0 mi Calm Calm - N/A   Overcast
3:36 AM 33.8 °F - 30.2 °F 87% 29.72 in 9.0 mi Calm Calm - N/A   Overcast
3:56 AM 33.8 °F - 30.2 °F 87% 29.72 in 5.0 mi Calm Calm - N/A   Overcast
4:16 AM 33.8 °F 30.8 °F 30.2 °F 87% 29.74 in 4.0 mi North 3.5 mph - N/A   Overcast
4:36 AM 33.8 °F - 32.0 °F 93% 29.74 in 7.0 mi Calm Calm - N/A   Overcast
4:56 AM 33.8 °F 30.8 °F 32.0 °F 93% 29.74 in 4.0 mi SW 3.5 mph - 0.04 in   Overcast
5:16 AM 33.8 °F - 30.2 °F 87% 29.74 in 3.0 mi Calm Calm - N/A   Overcast
5:36 AM 33.8 °F 30.8 °F 30.2 °F 87% 29.76 in 3.0 mi West 3.5 mph - N/A   Overcast
5:56 AM 33.8 °F 30.8 °F 32.0 °F 93% 29.77 in 3.0 mi West 3.5 mph - N/A   Overcast
6:16 AM 33.8 °F - 30.2 °F 87% 29.78 in 3.0 mi Calm Calm - N/A   Overcast
6:36 AM 33.8 °F - 30.2 °F 87% 29.79 in 3.0 mi Calm Calm - N/A   Overcast
6:56 AM 33.8 °F - 32.0 °F 93% 29.81 in 4.0 mi Calm Calm - N/A   Overcast
7:16 AM 33.8 °F - 32.0 °F 93% 29.82 in 4.0 mi Calm Calm - 0.01 in   Overcast
7:36 AM 33.8 °F 30.8 °F 32.0 °F 93% 29.82 in 4.0 mi East 3.5 mph - 0.03 in   Overcast
7:56 AM 33.8 °F - 33.8 °F 100% 29.83 in 5.0 mi Calm Calm - 0.03 in   Overcast
8:16 AM 33.8 °F - 30.2 °F 87% 29.84 in 5.0 mi Calm Calm - N/A   Overcast
8:56 AM 33.8 °F - 32.0 °F 93% 29.86 in 4.0 mi Calm Calm - 0.02 in   Overcast
9:16 AM 33.8 °F - 33.8 °F 100% 29.87 in 4.0 mi Calm Calm - 0.01 in   Overcast
9:36 AM 33.8 °F - 30.2 °F 87% 29.88 in 4.0 mi Calm Calm - 0.01 in   Overcast
9:56 AM 33.8 °F - 30.2 °F 87% 29.90 in 10.0 mi Calm Calm - 0.01 in   Overcast
10:16 AM 33.8 °F - 30.2 °F 87% 29.91 in 10.0 mi Calm Calm - N/A   Overcast
10:36 AM 33.8 °F 30.8 °F 32.0 °F 93% 29.92 in 10.0 mi ESE 3.5 mph - N/A   Overcast
10:56 AM 33.8 °F - 33.8 °F 100% 29.92 in 9.0 mi Calm Calm - N/A   Overcast
11:16 AM 33.8 °F - 30.2 °F 87% 29.93 in 9.0 mi Calm Calm - N/A   Overcast
11:36 AM 33.8 °F 30.8 °F 32.0 °F 93% 29.94 in 9.0 mi SE 3.5 mph - N/A   Overcast
11:56 AM 33.8 °F - 33.8 °F 100% 29.94 in 8.0 mi Calm Calm - N/A   Mostly Cloudy
12:16 PM 33.8 °F - 32.0 °F 93% 29.93 in 8.0 mi Calm Calm - N/A   Mostly Cloudy
12:36 PM 33.8 °F - 30.2 °F 87% 29.94 in 8.0 mi Calm Calm - N/A   Mostly Cloudy
1:16 PM 35.6 °F - 33.8 °F 93% 29.95 in 10.0 mi Calm Calm - N/A   Mostly Cloudy
1:36 PM 33.8 °F - 32.0 °F 93% 29.95 in 10.0 mi Calm Calm - N/A   Mostly Cloudy
1:56 PM 33.8 °F - 33.8 °F 100% 29.96 in 7.0 mi Calm Calm - N/A   Overcast
2:16 PM 33.8 °F 30.8 °F 32.0 °F 93% 29.96 in 7.0 mi North 3.5 mph - N/A   Overcast
2:36 PM 33.8 °F - 33.8 °F 100% 29.96 in 7.0 mi Calm Calm - N/A   Overcast
2:56 PM 33.8 °F - 30.2 °F 87% 29.97 in 5.0 mi Calm Calm - N/A   Overcast
3:16 PM 33.8 °F - 32.0 °F 93% 29.98 in 5.0 mi Calm Calm - N/A   Overcast
3:36 PM 33.8 °F - 30.2 °F 87% 29.97 in 5.0 mi Calm Calm - N/A   Overcast
3:56 PM 33.8 °F - 33.8 °F 100% 29.97 in 7.0 mi Calm Calm - 0.01 in   Overcast
4:16 PM 33.8 °F - 30.2 °F 87% 29.96 in 7.0 mi Calm Calm - N/A   Overcast
4:36 PM 33.8 °F - 32.0 °F 93% 29.96 in 7.0 mi Calm Calm - N/A   Overcast
4:56 PM 33.8 °F - 32.0 °F 93% 29.97 in 7.0 mi Calm Calm - N/A   Overcast
5:16 PM 33.8 °F 30.8 °F 33.8 °F 100% 29.96 in 7.0 mi East 3.5 mph - N/A   Overcast
5:36 PM 33.8 °F 30.8 °F 30.2 °F 87% 29.94 in 7.0 mi East 3.5 mph - N/A   Overcast
5:56 PM 33.8 °F 29.6 °F 30.2 °F 87% 29.96 in 5.0 mi East 4.6 mph - N/A   Overcast
6:16 PM 33.8 °F - 33.8 °F 100% 29.95 in 5.0 mi Calm Calm - N/A   Overcast
6:36 PM 32.0 °F - 30.2 °F 93% 29.94 in 5.0 mi Calm Calm - N/A   Overcast
6:56 PM 32.0 °F - 30.2 °F 93% 29.92 in 0.2 mi Calm Calm - N/A   Overcast
7:16 PM 32.0 °F - 30.2 °F 93% 29.92 in 1.5 mi Calm Calm - N/A   Overcast
7:36 PM 32.0 °F - 28.4 °F 87% 29.92 in 1.5 mi Calm Calm - N/A   Overcast
7:56 PM 32.0 °F - 30.2 °F 93% 29.91 in 0.2 mi Calm Calm - N/A   Overcast
8:16 PM 32.0 °F - 30.2 °F 93% 29.90 in 0.2 mi Calm Calm - N/A   Overcast
8:36 PM 32.0 °F - 30.2 °F 93% 29.90 in 0.2 mi Calm Calm - N/A   Overcast
8:56 PM 33.8 °F - 32.0 °F 93% 29.90 in 0.2 mi Calm Calm - N/A   Overcast
9:16 PM 33.8 °F - 30.2 °F 87% 29.90 in 0.2 mi Calm Calm - N/A   Overcast
9:36 PM 32.0 °F 28.7 °F 30.2 °F 93% 29.90 in 0.2 mi ESE 3.5 mph - N/A   Overcast
9:56 PM 33.8 °F - 32.0 °F 93% 29.89 in 1.5 mi Calm Calm - N/A   Overcast
10:16 PM 33.8 °F 30.8 °F 33.8 °F 100% 29.89 in 1.5 mi East 3.5 mph - 0.01 in   Overcast
10:36 PM 33.8 °F - 33.8 °F 100% 29.87 in 3.0 mi Calm Calm - 0.01 in   Overcast
10:56 PM 33.8 °F - 30.2 °F 87% 29.87 in 4.0 mi Calm Calm - 0.02 in   Overcast
11:16 PM 33.8 °F - 32.0 °F 93% 29.86 in 4.0 mi Calm Calm - N/A   Overcast
11:36 PM 33.8 °F 30.8 °F 30.2 °F 87% 29.85 in 4.0 mi East 3.5 mph - 0.01 in   Mostly Cloudy
11:56 PM 33.8 °F - 32.0 °F 93% 29.84 in 4.0 mi Calm Calm - 0.01 in   Overcast